Regional Weather Roundup
Issued by NWS

Home | Current Version | Previous Version | Graphics & Text | Print | Product List | Glossary On
Versions: 1 2 3 4 5 6 7 8 9 10 11 12 13 14 15 16 17 18 19 20 21 22 23 24 25 26 27 28 29 30 31 32 33 34 35 36 37 38 39 40 41 42 43 44 45 46 47 48 49 50
000
ASUS43 KDMX 261907
RWRIA

WEATHER ROUNDUP FOR IOWA
NATIONAL WEATHER SERVICE DES MOINES IA
200 PM CDT SUN APR 26 2015

NOTE: "FAIR" INDICATES FEW OR NO CLOUDS BELOW 12,000 FEET WITH NO
SIGNIFICANT WEATHER AND/OR OBSTRUCTIONS TO VISIBILITY.

* - THESE STATIONS ARE NOT NWS STATIONS...THUS NOT UNDER NWS
QUALITY CONTROL.  THEY ALSO DO NOT REPORT WEATHER SUCH
AS PRECIPITATION OR FOG.

IAZ001>003-012>014-020>022-031>034-043>046-262000-
   NORTHWEST IOWA

CITY           SKY/WX    TMP DP  RH WIND       PRES   REMARKS
CARROLL *      SUNNY     59  34  38 NE13      30.05F
CHEROKEE *     SUNNY     63  32  31 CALM      30.04F
DENISON *      SUNNY     59  32  36 E15G21    30.04S
LE MARS *      SUNNY     64  32  29 E8G15     30.06S
ORANGE CITY *  SUNNY     63  32  31 E8        30.05S
SHELDON *      SUNNY     64  28  25 NE10G16   30.04F
SIOUX CITY     SUNNY     63  30  28 SE10G23   30.05F
SPENCER        SUNNY     64  31  28 E9        30.05F
STORM LAKE *   SUNNY     61  28  29 NE12      30.06S
$$

IAZ055>058-069>071-079>083-090>094-262000-
   SOUTHWEST IOWA

CITY           SKY/WX    TMP DP  RH WIND       PRES   REMARKS
ATLANTIC *     SUNNY     59  34  38 E13G21    30.04S
AUDUBON *      SUNNY     61  36  39 NE10G17   30.06S
CLARINDA *     SUNNY     59  39  47 E10G18    30.03F
COUNCIL BLFS * SUNNY     59  39  47 E14       30.03F
CRESTON *      SUNNY     59  34  38 NE15G21   30.03S
HARLAN  *      SUNNY     59  34  38 E12G18    30.07F
LAMONI         SUNNY     61  36  39 E12G22    30.01F
RED OAK *      SUNNY     59  39  47 E10G17    30.03F
SHENANDOAH *   SUNNY     61  41  48 E10G18    30.02F
$$

IAZ047>049-059>061-072>074-084-262000-
   CENTRAL IOWA

CITY           SKY/WX    TMP DP  RH WIND       PRES   REMARKS
AMES           SUNNY     60  28  29 NE12      30.05F
ANKENY *       SUNNY     61  30  31 NE10G20   30.04F
CHARITON *     SUNNY     59  32  36 NE12G18   30.03S
DES MOINES     MOSUNNY   62  26  25 NE15G21   30.05S
GRINNELL*      SUNNY     57  32  38 N9G18     30.05F
KNOXVILLE *    SUNNY     59  30  33 NE8G18    30.03S
MARSHALLTOWN   SUNNY     60  29  30 NE15G21   30.04F
PELLA *        SUNNY     59  39  47 NE5       30.06S
PERRY *          N/A     59  34  38 N12G23    30.05F
$$

IAZ004>006-015-016-023>025-035-036-262000-
   NORTH CENTRAL IOWA

CITY           SKY/WX    TMP DP  RH WIND       PRES   REMARKS
ALGONA *       SUNNY     59  32  36 VRB7G13   30.07F
CLARION *      SUNNY     59  25  27 NE8       30.07S
ESTHERVILLE    SUNNY     62  32  32 VRB6      30.06F
FORT DODGE *   SUNNY     61  34  36 E13       30.07S
MASON CITY     SUNNY     58  26  29 VRB5      30.09S
FOREST CITY *  SUNNY     55  28  35 NE7       30.07F
IOWA FALLS *     N/A     59  28  31 N12G18    30.07F
$$

IAZ007>011-017>019-026>030-037>042-050>054-066-262000-
   NORTHEAST IOWA

CITY           SKY/WX    TMP DP  RH WIND       PRES   REMARKS
CEDAR RAPIDS   SUNNY     56  34  43 E9        30.04F
CHARLES CITY * SUNNY     57  27  30 N10G16    30.08F
CLINTON *      SUNNY     55  34  44 NE6G17    30.07S
DECORAH *      SUNNY     57  23  26 NE8       30.06F
DUBUQUE        SUNNY     57  29  34 NE10      30.05F
MONTICELLO *   SUNNY     57  30  35 VRB7      30.05F
OELWEIN *      SUNNY     57  25  28 VRB6G16   30.07F
WATERLOO       SUNNY     59  30  33 E12G20    30.06F
$$

IAZ064-065-067-068-078-262000-
   EAST CENTRAL IOWA

CITY           SKY/WX    TMP DP  RH WIND       PRES   REMARKS
DAVENPORT      SUNNY     57  31  37 NE12      30.04F
IOWA CITY      SUNNY     57  35  43 NE10      30.06F
MT. PLEASANT * SUNNY     57  34  41 NE9       30.04S
MUSCATINE *    SUNNY     59  32  36 E9        30.05S
QUAD CITIES    SUNNY     59  33  37 E8G16     30.03F
$$

IAZ062-063-075>077-085>089-095>099-262000-
   SOUTHEAST IOWA

CITY           SKY/WX    TMP DP  RH WIND       PRES   REMARKS
BURLINGTON     SUNNY     59  36  42 N12       30.02S
FAIRFIELD *    SUNNY     55  34  44 NE8       30.04S
FORT MADISON * SUNNY     57  34  41 NE8       30.02F
KEOKUK *       SUNNY     59  34  38 NE10      30.01S
OSKALOOSA *      N/A     57  30  35 NE7G17    30.05S
CENTERVILLE *  SUNNY     59  36  41 NE9       30.03F
OTTUMWA        SUNNY     58  29  33 NE13      30.04S
WASHINGTON *   SUNNY     57  36  44 NE9       30.04S
$$

ABBREVIATIONS USED IN REMARKS
   TC - TEMPERATURES IN CELSIUS
  WCI - WIND CHILL INDEX
   HX - HEAT INDEX
  VSB - VISIBILITY
$$



USA.gov is the U.S. government's official web portal to all federal, state and local government web resources and services.